Uberlandia, Brazil

1:25 AM -03 on August 21, 2017 (GMT -0300)
Uberlandia

Weather History for SBUL - August, 2017

Change the Weather History Date:

Sunday, August 13, 2017

  Actual Average Record
Temperature  
Mean Temperature 75 °F -  
Max Temperature 86 °F - - ()
Min Temperature 64 °F - - ()
Cooling Degree Days 10    
Growing Degree Days 25 (Base 50)    
Moisture  
Dew Point 44 °F    
Average Humidity 35    
Maximum Humidity 56    
Minimum Humidity 22    
Precipitation  
Precipitation 0.00 in - - ()
Sea Level Pressure  
Sea Level Pressure 30.11 in    
Wind  
Wind Speed 9 mph ()    
Max Wind Speed 18 mph    
Max Gust Speed -    
T = Trace of Precipitation, MM = Missing Value Source: Averaged Metar Reports

Daily Weather History Graph

Daily Weather History Graph

Search for Another Location

Airport or City:

Trip Planner

Search our weather history database for the weather conditions in past years. The results will help you decide how hot, cold, wet, or windy it might be!

Date:

Astronomy

Aug. 13, 2017 Rise Set
Actual Time 6:34 AM -03 6:01 PM -03
Civil Twilight 6:11 AM -03 6:23 PM -03
Nautical Twilight 5:45 AM -03 6:49 PM -03
Astronomical Twilight 5:20 AM -03 7:15 PM -03
Moon 11:29 PM -03 (8/13) 10:38 AM -03 (8/13)
Length of Visible Light 12h 11m
Length of Day
11h 26m
Waning Gibbous, 66% of the Moon is Illuminated
Aug 13
Waning Gibbous
Aug 14
Last Quarter
Aug 21
New
Aug 29
First Quarter
Sep 6
Full

Hourly Weather History & Observations

Time (-03) Temp. Dew Point Humidity Pressure Visibility Wind Dir Wind Speed Gust Speed Precip Events Conditions
12:00 AM 69.8 °F 48.2 °F 46% 30.15 in - ENE 10.4 mph - N/A   Clear
1:00 AM 69.8 °F 46.4 °F 43% 30.12 in - NE 12.7 mph - N/A   Clear
2:00 AM 66.2 °F 46.4 °F 49% 30.09 in - NE 9.2 mph - N/A   Clear
4:00 AM 66.2 °F 46.4 °F 49% 30.09 in - NNE 10.4 mph - N/A   Clear
6:00 AM 66.2 °F 46.4 °F 49% 30.09 in - NNE 11.5 mph - N/A   Clear
7:00 AM 64.4 °F 48.2 °F 56% 30.12 in - NE 11.5 mph - N/A   Clear
8:00 AM 68.0 °F 48.2 °F 49% 30.15 in - NE 11.5 mph - N/A   Clear
9:00 AM 71.6 °F 46.4 °F 41% 30.18 in - NNE 15.0 mph - N/A   Clear
10:00 AM 75.2 °F 44.6 °F 34% 30.18 in - NNE 18.4 mph - N/A   Clear
11:00 AM 78.8 °F 44.6 °F 30% 30.18 in - NE 13.8 mph - N/A   Clear
12:00 PM 82.4 °F 42.8 °F 25% 30.15 in - North 13.8 mph - N/A   Clear
1:00 PM 82.4 °F 42.8 °F 25% 30.12 in - North 13.8 mph - N/A   Clear
2:00 PM 84.2 °F 42.8 °F 23% 30.09 in - NNW 8.1 mph - N/A   Clear
3:00 PM 86.0 °F 42.8 °F 22% 30.06 in - North 12.7 mph - N/A   Clear
4:00 PM 84.2 °F 41.0 °F 22% 30.04 in - North 10.4 mph - N/A   Clear
5:00 PM 84.2 °F 41.0 °F 22% 30.04 in - North 9.2 mph - N/A   Clear
6:00 PM 80.6 °F 42.8 °F 26% 30.06 in - NNW 4.6 mph - N/A   Clear
7:00 PM 78.8 °F 42.8 °F 28% 30.06 in - North 3.5 mph - N/A   Clear
8:00 PM 75.2 °F 42.8 °F 31% 30.09 in - NNW 2.3 mph - N/A   Clear
9:00 PM 75.2 °F 42.8 °F 31% 30.09 in - North 2.3 mph - N/A   Clear
10:00 PM 73.4 °F 42.8 °F 33% 30.12 in - Variable 2.3 mph - N/A   Clear
11:00 PM 71.6 °F 42.8 °F 35% 30.12 in - Variable 4.6 mph - N/A   Clear